TimeEDT,TemperatureF,Dew PointF,Humidity,Sea Level PressureIn,VisibilityMPH,Wind Direction,Wind SpeedMPH,Gust SpeedMPH,PrecipitationIn,Events,Conditions,WindDirDegrees,DateUTC
12:34 AM,66.2,58.8,77,29.74,10.0,SW,3.5,-,N/A,,Clear,230,2012-06-30 04:34:00
12:55 AM,67.1,59.0,75,29.75,10.0,South,5.8,-,N/A,,Clear,190,2012-06-30 04:55:00
1:14 AM,67.8,59.2,74,29.75,10.0,SSW,9.2,-,N/A,,Mostly Cloudy,200,2012-06-30 05:14:00
1:34 AM,68.5,59.5,73,29.74,10.0,SSW,9.2,-,N/A,,Mostly Cloudy,210,2012-06-30 05:34:00
1:54 AM,69.1,59.7,72,29.74,10.0,SSW,10.4,-,N/A,,Mostly Cloudy,200,2012-06-30 05:54:00
2:14 AM,69.1,59.9,72,29.74,10.0,SSW,9.2,-,N/A,,Overcast,200,2012-06-30 06:14:00
2:34 AM,69.3,59.9,72,29.74,10.0,SSW,11.5,16.1,N/A,,Mostly Cloudy,210,2012-06-30 06:34:00
2:54 AM,68.9,59.9,73,29.73,10.0,SSW,6.9,-,N/A,,Mostly Cloudy,200,2012-06-30 06:54:00
3:14 AM,68.9,59.5,72,29.73,10.0,SSW,8.1,-,N/A,,Overcast,210,2012-06-30 07:14:00
3:34 AM,68.9,59.5,72,29.73,10.0,SSW,8.1,-,N/A,,Mostly Cloudy,210,2012-06-30 07:34:00
3:54 AM,68.5,59.4,72,29.73,10.0,SSW,8.1,-,N/A,,Mostly Cloudy,210,2012-06-30 07:54:00
4:14 AM,68.4,59.2,72,29.72,10.0,SW,6.9,-,N/A,,Mostly Cloudy,220,2012-06-30 08:14:00
4:34 AM,69.3,59.0,70,29.72,10.0,SW,8.1,-,N/A,,Mostly Cloudy,230,2012-06-30 08:34:00
5:14 AM,68.4,59.2,72,29.72,10.0,SW,10.4,-,N/A,,Scattered Clouds,220,2012-06-30 09:14:00
5:35 AM,67.6,59.4,75,29.72,10.0,SW,8.1,-,N/A,,Clear,220,2012-06-30 09:35:00
5:54 AM,67.3,59.9,77,29.73,10.0,WSW,9.2,-,N/A,,Clear,240,2012-06-30 09:54:00
6:14 AM,69.1,59.4,71,29.73,10.0,WSW,9.2,-,N/A,,Clear,240,2012-06-30 10:14:00
6:35 AM,68.5,59.9,74,29.74,10.0,SW,5.8,-,N/A,,Clear,230,2012-06-30 10:35:00
7:14 AM,69.4,60.1,72,29.74,10.0,WSW,8.1,-,N/A,,Clear,250,2012-06-30 11:14:00
7:35 AM,69.8,60.4,72,29.75,10.0,West,8.1,-,N/A,,Clear,260,2012-06-30 11:35:00
7:54 AM,70.2,60.6,72,29.74,10.0,West,10.4,-,N/A,,Clear,270,2012-06-30 11:54:00
8:14 AM,70.2,61.0,73,29.76,10.0,West,8.1,-,N/A,,Clear,280,2012-06-30 12:14:00
8:34 AM,70.3,61.3,73,29.76,10.0,NW,4.6,-,N/A,,Clear,310,2012-06-30 12:34:00
8:54 AM,70.7,59.7,68,29.77,10.0,WNW,3.5,-,N/A,,Clear,290,2012-06-30 12:54:00
9:15 AM,71.1,61.0,70,29.77,10.0,West,8.1,-,N/A,,Clear,270,2012-06-30 13:15:00
9:34 AM,71.1,60.3,69,29.77,10.0,WNW,4.6,-,N/A,,Clear,290,2012-06-30 13:34:00
9:54 AM,72.1,59.0,63,29.77,10.0,West,5.8,-,N/A,,Clear,260,2012-06-30 13:54:00
10:15 AM,72.9,58.8,61,29.77,10.0,WSW,6.9,-,N/A,,Clear,250,2012-06-30 14:15:00
10:34 AM,73.6,58.3,59,29.77,10.0,West,8.1,-,N/A,,Clear,260,2012-06-30 14:34:00
10:54 AM,73.9,58.3,58,29.78,10.0,West,6.9,-,N/A,,Clear,270,2012-06-30 14:54:00
11:15 AM,74.7,57.2,54,29.77,10.0,NW,4.6,-,N/A,,Clear,310,2012-06-30 15:15:00
11:34 AM,75.4,57.6,54,29.78,10.0,WNW,6.9,-,N/A,,Clear,290,2012-06-30 15:34:00
11:54 AM,74.5,57.6,55,29.79,10.0,West,9.2,-,N/A,,Clear,280,2012-06-30 15:54:00
12:14 PM,75.6,58.5,55,29.80,10.0,West,9.2,-,N/A,,Clear,270,2012-06-30 16:14:00
12:34 PM,74.8,57.7,55,29.80,10.0,West,10.4,-,N/A,,Clear,280,2012-06-30 16:34:00
12:54 PM,75.0,58.1,56,29.81,10.0,West,9.2,-,N/A,,Clear,260,2012-06-30 16:54:00
1:14 PM,75.2,58.8,57,29.81,10.0,West,9.2,-,N/A,,Clear,280,2012-06-30 17:14:00
1:34 PM,76.5,58.1,53,29.82,10.0,West,9.2,-,N/A,,Clear,260,2012-06-30 17:34:00
1:54 PM,76.1,58.6,55,29.82,10.0,WSW,10.4,-,N/A,,Clear,250,2012-06-30 17:54:00
2:14 PM,75.7,58.6,55,29.82,10.0,West,11.5,-,N/A,,Clear,260,2012-06-30 18:14:00
2:34 PM,77.0,58.5,53,29.82,10.0,West,12.7,-,N/A,,Clear,260,2012-06-30 18:34:00
2:54 PM,77.2,59.0,53,29.82,10.0,West,11.5,-,N/A,,Clear,270,2012-06-30 18:54:00
3:14 PM,77.5,58.3,51,29.82,10.0,WSW,11.5,-,N/A,,Clear,250,2012-06-30 19:14:00
3:34 PM,78.1,56.8,48,29.82,10.0,West,9.2,-,N/A,,Clear,260,2012-06-30 19:34:00
3:54 PM,78.4,57.4,48,29.82,10.0,West,9.2,-,N/A,,Clear,260,2012-06-30 19:54:00
4:14 PM,78.8,57.2,47,29.82,10.0,West,9.2,-,N/A,,Clear,260,2012-06-30 20:14:00
4:34 PM,79.0,57.0,47,29.82,10.0,WSW,9.2,-,N/A,,Clear,250,2012-06-30 20:34:00
4:54 PM,79.7,57.0,46,29.82,10.0,West,10.4,-,N/A,,Clear,260,2012-06-30 20:54:00
5:14 PM,79.2,57.4,47,29.83,10.0,West,9.2,-,N/A,,Clear,260,2012-06-30 21:14:00
5:34 PM,78.4,56.7,47,29.82,10.0,West,10.4,-,N/A,,Clear,260,2012-06-30 21:34:00
5:54 PM,78.8,57.4,48,29.82,10.0,West,8.1,-,N/A,,Clear,260,2012-06-30 21:54:00
6:15 PM,78.6,57.2,48,29.82,10.0,West,6.9,-,N/A,,Clear,260,2012-06-30 22:15:00
6:34 PM,78.6,54.7,43,29.82,10.0,West,6.9,-,N/A,,Clear,260,2012-06-30 22:34:00
6:54 PM,78.6,54.7,43,29.82,10.0,West,5.8,-,N/A,,Clear,260,2012-06-30 22:54:00
7:15 PM,78.6,55.0,44,29.82,10.0,West,5.8,-,N/A,,Clear,260,2012-06-30 23:15:00
7:34 PM,78.4,54.7,44,29.83,10.0,West,4.6,-,N/A,,Clear,270,2012-06-30 23:34:00
7:54 PM,77.4,55.9,47,29.84,10.0,West,5.8,-,N/A,,Clear,280,2012-06-30 23:54:00
8:15 PM,76.1,56.8,51,29.84,10.0,West,6.9,-,N/A,,Clear,270,2012-07-01 00:15:00
8:34 PM,74.7,57.4,55,29.84,10.0,West,3.5,-,N/A,,Clear,260,2012-07-01 00:34:00
8:54 PM,72.9,57.0,57,29.85,10.0,West,4.6,-,N/A,,Clear,260,2012-07-01 00:54:00
9:15 PM,71.8,57.2,60,29.85,10.0,West,3.5,-,N/A,,Clear,260,2012-07-01 01:15:00
9:34 PM,69.3,57.6,66,29.86,10.0,Calm,Calm,-,N/A,,Clear,0,2012-07-01 01:34:00
9:54 PM,68.5,58.3,70,29.87,5.0,NNW,9.2,-,N/A,,Haze,330,2012-07-01 01:54:00
10:14 PM,67.1,60.8,80,29.87,10.0,Calm,Calm,-,N/A,,Clear,0,2012-07-01 02:14:00
10:34 PM,67.1,60.1,78,29.88,10.0,Calm,Calm,-,N/A,,Scattered Clouds,0,2012-07-01 02:34:00
10:54 PM,66.7,59.7,78,29.88,10.0,Calm,Calm,-,N/A,,Scattered Clouds,0,2012-07-01 02:54:00
11:14 PM,66.0,60.3,82,29.89,10.0,Calm,Calm,-,N/A,,Clear,0,2012-07-01 03:14:00
11:34 PM,66.4,60.8,82,29.88,10.0,Calm,Calm,-,N/A,,Clear,0,2012-07-01 03:34:00
11:54 PM,68.4,59.0,72,29.88,10.0,Calm,Calm,-,N/A,,Scattered Clouds,0,2012-07-01 03:54:00